Regional Weather Roundup
Issued by NWS

Home | Current Version | Previous Version | Graphics & Text | Print | Product List | Glossary On
Versions: 1 2 3 4 5 6 7 8 9 10 11 12 13 14 15 16 17 18 19 20 21 22 23 24 25 26 27 28 29 30 31 32 33 34 35 36 37 38 39 40 41 42 43 44 45 46 47 48 49 50
000
ASUS43 KBIS 170902
RWRND

NORTH DAKOTA REGIONAL WEATHER ROUNDUP
NATIONAL WEATHER SERVICE BISMARCK ND
400 AM CDT TUE OCT 17 2017

NOTE: "FAIR" INDICATES FEW OR NO CLOUDS BELOW 12,000 FEET WITH NO
SIGNIFICANT WEATHER AND/OR OBSTRUCTIONS TO VISIBILITY.


NDZ001>003-009>011-017-171000-
NORTHWEST NORTH DAKOTA

CITY           SKY/WX    TMP DP  RH WIND       PRES   REMARKS
WILLISTON      CLOUDY    43  33  68 SW10      29.87F
MINOT          CLOUDY    52  33  48 SW12      29.85F
MINOT AFB      CLOUDY    51  32  48 SW12      29.82F
$$

NDZ018>021-031>035-040>046-171000-
SOUTHWEST NORTH DAKOTA

CITY           SKY/WX    TMP DP  RH WIND       PRES   REMARKS
BISMARCK       CLEAR     32  29  88 SE3       29.96F
DICKINSON      CLEAR     44  29  55 S6        29.94F
GARRISON         N/A     43  37  79 S3        29.91F
HETTINGER ARPT CLOUDY    36  26  67 CALM      30.01F
$$

NDZ004>008-012>016-024-026-027-054-171000-
NORTHEAST NORTH DAKOTA

CITY           SKY/WX    TMP DP  RH WIND       PRES   REMARKS
GRAND FORKS    CLOUDY    39  34  82 SW5       29.88F
GRND FRKS AFB  CLOUDY    37  32  83 SW5       29.88
DEVILS LAKE    CLOUDY    46  39  76 SW8       29.90F
$$

NDZ022-023-025-028>030-036>039-047>053-171000-
SOUTHEAST NORTH DAKOTA

CITY           SKY/WX    TMP DP  RH WIND       PRES   REMARKS
FARGO          CLOUDY    39  35  86 SW3       29.93S
JAMESTOWN      CLOUDY    35  31  85 S7        29.94S
$$




USA.gov is the U.S. government's official web portal to all federal, state and local government web resources and services.